Weather History for South St. Paul, MN

Change the Weather History Date:

Tuesday, June 26, 2012

  Actual Average (KMSP) Record (KMSP)
Temperature  
Mean Temperature 69 °F 72 °F  
Max Temperature 80 °F 82 °F 99 °F (1931)
Min Temperature 58 °F 62 °F 46 °F (1926)
Degree Days  
Heating Degree Days 0 0  
Month to date heating degree days 44  
Since 1 June heating degree days 44  
Since 1 July heating degree days 7580  
Cooling Degree Days 4 8  
Month to date cooling degree days 127  
Year to date cooling degree days 169  
Since 1 June cooling degree days 127  
Growing Degree Days 19 (Base 50)    
Moisture  
Dew Point 52 °F    
Average Humidity 56    
Maximum Humidity 86    
Minimum Humidity 31    
Precipitation  
Precipitation 0.00 in 0.14 in 2.54 in (1998)
Month to date precipitation 3.67  
Year to date precipitation 13.25  
Snow  
Snow 0.00 in 0.00 in 0.00 in ()
Month to date snowfall 0.0  
Since 1 June snowfall 0.0  
Since 1 July snowfall 54.4  
Snow Depth -    
Sea Level Pressure  
Sea Level Pressure 29.93 in    
Wind  
Wind Speed 5 mph (SSE)    
Max Wind Speed 14 mph    
Max Gust Speed 20 mph    
Visibility 10 miles    
Events      
T = Trace of Precipitation, MM = Missing Value Source: NWS Daily Summary

Daily Weather History Graph

Daily Weather History Graph

Search for Another Location

Airport:

Trip Planner

Search our weather history database for the weather conditions in past years. The results will help you decide how hot, cold, wet, or windy it might be!

Date:

Astronomy

Jun. 26, 2012 Rise Set
Actual Time 5:27 AM CDT 9:02 PM CDT
Civil Twilight 4:50 AM CDT 9:39 PM CDT
Nautical Twilight 4:01 AM CDT 10:28 PM CDT
Astronomical Twilight 2:56 AM CDT 11:33 PM CDT
Moon 1:04 PM CDT (6/26) 12:12 AM CDT (6/26)
Length of Visible Light 16h 49m
Length of Day
15h 34m
Waxing Crescent, 45% of the Moon is Illuminated
Jun 26
Waxing Crescent
Jun 26
First Quarter
Jul 3
Full
Jul 10
Last Quarter
Jul 18
New

Hourly Weather History & Observations

Time (CDT) Temp. Dew Point Humidity Pressure Visibility Wind Dir Wind Speed Gust Speed Precip Events Conditions
12:14 AM 63.9 °F 53.2 °F 68% 30.05 in 10.0 mi Calm Calm - N/A   Clear
12:34 AM 63.5 °F 54.1 °F 72% 30.05 in 10.0 mi Calm Calm - N/A   Clear
12:54 AM 62.8 °F 52.9 °F 70% 30.06 in 10.0 mi Calm Calm - N/A   Clear
1:14 AM 61.7 °F 54.7 °F 78% 30.05 in 10.0 mi Calm Calm - N/A   Clear
1:34 AM 61.2 °F 54.5 °F 79% 30.04 in 10.0 mi Calm Calm - N/A   Clear
1:54 AM 60.3 °F 54.5 °F 81% 30.04 in 10.0 mi Calm Calm - N/A   Clear
2:14 AM 61.0 °F 53.8 °F 77% 30.03 in 10.0 mi SE 3.5 mph - N/A   Clear
2:34 AM 60.1 °F 54.1 °F 81% 30.03 in 10.0 mi Calm Calm - N/A   Clear
2:53 AM 60.1 °F 54.7 °F 82% 30.03 in 10.0 mi Calm Calm - N/A   Clear
3:14 AM 59.9 °F 54.3 °F 82% 30.02 in 10.0 mi Calm Calm - N/A   Clear
3:33 AM 59.5 °F 54.5 °F 83% 30.02 in 10.0 mi Calm Calm - N/A   Clear
3:54 AM 59.2 °F 54.9 °F 86% 30.02 in 10.0 mi Calm Calm - N/A   Clear
4:13 AM 59.0 °F 54.7 °F 86% 30.01 in 10.0 mi Calm Calm - N/A   Clear
4:34 AM 59.0 °F 54.5 °F 85% 30.01 in 10.0 mi Calm Calm - N/A   Clear
4:54 AM 59.0 °F 54.5 °F 85% 30.02 in 10.0 mi Calm Calm - N/A   Clear
5:14 AM 58.6 °F 54.3 °F 86% 30.02 in 10.0 mi Calm Calm - N/A   Clear
5:34 AM 58.5 °F 54.0 °F 85% 30.02 in 10.0 mi Calm Calm - N/A   Clear
5:53 AM 58.5 °F 54.3 °F 86% 30.03 in 10.0 mi Calm Calm - N/A   Clear
6:14 AM 59.2 °F 53.1 °F 80% 30.03 in 10.0 mi SSE 4.6 mph - N/A   Clear
6:34 AM 61.2 °F 52.0 °F 72% 30.03 in 10.0 mi SSE 6.9 mph - N/A   Clear
6:54 AM 61.7 °F 51.1 °F 68% 30.03 in 10.0 mi SSE 9.2 mph - N/A   Clear
7:14 AM 62.6 °F 49.1 °F 61% 30.02 in 10.0 mi South 10.4 mph 16.1 mph N/A   Clear
7:33 AM 63.9 °F 48.4 °F 57% 30.03 in 10.0 mi South 11.5 mph 19.6 mph N/A   Clear
7:54 AM 63.7 °F 48.2 °F 57% 30.02 in 10.0 mi SSE 8.1 mph 16.1 mph N/A   Clear
8:14 AM 64.2 °F 48.9 °F 58% 30.02 in 10.0 mi SSE 6.9 mph - N/A   Clear
8:34 AM 64.4 °F 49.5 °F 58% 30.02 in 10.0 mi SSE 6.9 mph - N/A   Clear
8:54 AM 66.4 °F 48.6 °F 53% 30.02 in 10.0 mi SSE 13.8 mph 17.3 mph N/A   Clear
9:13 AM 65.7 °F 49.5 °F 56% 30.00 in 10.0 mi SSE 11.5 mph 17.3 mph N/A   Clear
9:34 AM 65.7 °F 49.5 °F 56% 30.00 in 10.0 mi SSE 10.4 mph - N/A   Clear
9:54 AM 66.2 °F 50.0 °F 56% 30.00 in 10.0 mi SSE 8.1 mph - N/A   Clear
10:14 AM 66.6 °F 49.8 °F 55% 29.99 in 10.0 mi SSE 11.5 mph 16.1 mph N/A   Clear
10:34 AM 68.0 °F 50.5 °F 54% 30.00 in 10.0 mi SSE 8.1 mph - N/A   Clear
10:54 AM 67.8 °F 50.4 °F 54% 29.97 in 10.0 mi SSE 9.2 mph - N/A   Clear
11:14 AM 69.3 °F 51.3 °F 53% 30.00 in 10.0 mi South 8.1 mph - N/A   Clear
11:34 AM 70.5 °F 50.5 °F 49% 29.99 in 10.0 mi SSE 8.1 mph - N/A   Clear
11:54 AM 72.5 °F 49.5 °F 44% 29.98 in 10.0 mi SSE 10.4 mph - N/A   Clear
12:14 PM 72.0 °F 47.3 °F 41% 29.96 in 10.0 mi SSE 12.7 mph - N/A   Clear
12:34 PM 72.0 °F 48.6 °F 43% 29.96 in 10.0 mi SSE 11.5 mph 16.1 mph N/A   Clear
12:54 PM 72.0 °F 48.2 °F 43% 29.96 in 10.0 mi SSE 9.2 mph - N/A   Clear
1:14 PM 73.4 °F 48.9 °F 42% 29.95 in 10.0 mi SSE 9.2 mph - N/A   Clear
1:33 PM 73.2 °F 49.6 °F 43% 29.94 in 10.0 mi SSE 9.2 mph - N/A   Clear
1:54 PM 74.8 °F 49.3 °F 40% 29.92 in 10.0 mi SE 10.4 mph 18.4 mph N/A   Clear
2:14 PM 75.7 °F 50.4 °F 41% 29.91 in 10.0 mi SSE 11.5 mph 16.1 mph N/A   Clear
2:34 PM 76.3 °F 50.2 °F 40% 29.91 in 10.0 mi SSE 8.1 mph - N/A   Clear
2:54 PM 77.5 °F 48.9 °F 36% 29.90 in 10.0 mi SSE 9.2 mph 17.3 mph N/A   Clear
3:13 PM 78.1 °F 45.0 °F 31% 29.89 in 10.0 mi SSE 12.7 mph 18.4 mph N/A   Clear
3:34 PM 78.8 °F 46.2 °F 32% 29.88 in 10.0 mi SSE 10.4 mph 16.1 mph N/A   Clear
3:54 PM 79.2 °F 46.6 °F 32% 29.87 in 10.0 mi SSE 11.5 mph 17.3 mph N/A   Clear
4:14 PM 79.2 °F 47.5 °F 33% 29.86 in 10.0 mi SSE 11.5 mph - N/A   Clear
4:34 PM 80.1 °F 47.1 °F 31% 29.85 in 10.0 mi SSE 10.4 mph 16.1 mph N/A   Clear
4:54 PM 80.1 °F 47.8 °F 32% 29.85 in 10.0 mi SSE 10.4 mph 17.3 mph N/A   Clear
5:14 PM 80.1 °F 48.4 °F 33% 29.84 in 10.0 mi SSE 10.4 mph 17.3 mph N/A   Clear
5:34 PM 79.7 °F 50.4 °F 36% 29.83 in 10.0 mi SE 8.1 mph - N/A   Clear
5:53 PM 80.6 °F 51.3 °F 36% 29.82 in 10.0 mi SE 10.4 mph 17.3 mph N/A   Clear
6:14 PM 80.2 °F 52.3 °F 38% 29.81 in 10.0 mi SE 8.1 mph - N/A   Clear
6:34 PM 79.7 °F 52.3 °F 39% 29.80 in 10.0 mi SE 9.2 mph 17.3 mph N/A   Clear
6:54 PM 79.7 °F 54.0 °F 41% 29.79 in 10.0 mi SE 6.9 mph - N/A   Clear
7:14 PM 79.7 °F 51.8 °F 38% 29.79 in 10.0 mi SSE 9.2 mph 17.3 mph N/A   Clear
7:34 PM 79.3 °F 51.8 °F 38% 29.78 in 10.0 mi SE 8.1 mph 16.1 mph N/A   Clear
7:54 PM 78.3 °F 54.1 °F 43% 29.78 in 10.0 mi SSE 8.1 mph - N/A   Clear
8:14 PM 77.4 °F 55.4 °F 47% 29.78 in 10.0 mi SE 6.9 mph - N/A   Clear
8:34 PM 76.3 °F 56.7 °F 51% 29.77 in 10.0 mi SSE 5.8 mph - N/A   Clear
8:54 PM 75.4 °F 57.2 °F 53% 29.77 in 10.0 mi SSE 6.9 mph - N/A   Clear
9:14 PM 74.5 °F 57.2 °F 55% 29.76 in 10.0 mi SSE 5.8 mph - N/A   Clear
9:34 PM 74.3 °F 56.5 °F 54% 29.77 in 10.0 mi SSE 6.9 mph - N/A   Clear
9:54 PM 73.9 °F 55.2 °F 52% 29.77 in 10.0 mi SSE 6.9 mph - N/A   Clear
10:14 PM 74.1 °F 54.5 °F 50% 29.76 in 10.0 mi SSE 9.2 mph - N/A   Clear
10:34 PM 73.9 °F 54.9 °F 51% 29.77 in 10.0 mi SSE 8.1 mph - N/A   Clear
10:54 PM 73.4 °F 55.4 °F 53% 29.77 in 10.0 mi SSE 10.4 mph - N/A   Clear
11:34 PM 72.9 °F 55.9 °F 55% 29.76 in 10.0 mi SSE 10.4 mph - N/A   Clear
11:53 PM 72.1 °F 55.9 °F 57% 29.76 in 10.0 mi SSE 9.2 mph - N/A   Clear